Погода Готня

Погода Готня : погода сейчас, прогноз погоды и архив. Всё, что Вы хотите узнать о погоде Готня!

Поиск расширенной информации на нашем сайте:

Другие новости

Новости СМИ2

Главная страница сайта

Новости сайта

03.07.2017

Напоминаем, что на нашем специализированном сайте Метеоцентр.Азия вы можете получить высокодетализированные автоматические прогнозы погоды по пунктам России, СНГ и мира в авиационном формате (включающие направление и скорость ветра, видимость, явления погоды, количество и форму облачности, нижнюю и верхнюю границу облачности).


Погода Готня - сегодня

Время (UTC), дата Ветер
(°,м/с) 
Видим.   Явления Облачность Т
(°С)
Тd
(°С)
f(%) Тe
(°С)
Pmin
(гПа)
dP
(гПа)
Po
(мм)
O2
(г/м3)
Тmin Tmax R s Состояние
почвы
09 16.04.18 160 (Ю) 20000 м    6/0 средняя 
[Ac lent]
+18.6 +9 54 +20  1020.6  0.2  746  280           
12 16.04.18 190 (Ю) 20000 м    6/3 600 м верхняя 
[Cu med, cong|Ci]
+21.2 +7.4 41 +21  1019.1  -1.2  745  277           
15 16.04.18 050 (СВ) 20000 м    8/0 средняя 
[Ac As]
+20.6 +6.1 39 +21  1017.7  -1.4  744  278           
00 17.04.18 280 (З) 10 км    ясно 
+11.6 +7.4 75 +11  1019.3  0.3  744  286           
09 17.04.18 210 (ЮЗ) 20000 м    10/0 средняя 
[Ac und]
+19.1 +4.3 38 +20  1019.3  -0.3  745  280           
12 17.04.18 220 (ЮЗ) 20000 м    10/0 средняя 
[Ac und]
+18.9 +3 35 +19  1019.2  -0.1  745  280           
15 17.04.18 220 (ЮЗ) 20000 м    10/0 средняя 
[Ac und]
+18.5 +1.3 32 +19  1018.5  -0.8  744  281           
21 17.04.18 210 (ЮЗ) 10 км    10/4 600 м кучево-дожд., средняя 
[Cb calv|Ac As]
+12.6 +2.5 50 +12  1018  -0.7  743  286           
00 18.04.18 210 (ЮЗ) 10 км    8/8 600 м кучево-дожд. 
[Cb calv]
+11 +2.7 57 +11  1017  -1.1  742  287           
18 18.04.18 310 (СЗ) 6{15}  10 км  {ливн. осадки}  10/10 600 м кучево-дожд. 
[Cb calv]
+10.9 +3.4 60 +9  1015.2  0.1  741  287    +16.8     
21 18.04.18 280 (З) 5{10}  10 км    8/8 600 м кучево-дожд. 
[Cb calv]
+8.1 +3.4 72 +7  1013.9  -1.5  740  289           
06 19.04.18 310 (СЗ) 7-10{11}  20000 м  слаб. ливневой дождь  10/10 600 м кучево-дожд. 
[Cb cap]
+7.8 +6.2 90 +6  1006.4  -1.6  734  287  +7.5       
18 19.04.18 340 (С) 8-12{12}  10 км  слаб. ливневой дождь  10/10 600 м кучево-дожд. 
[Cb cap]
+7.6 +5.6 87 +5  1006.1  1.2  734  287    +8.4     
21 20.04.18 320 (СЗ) 10 км    ясно 
+6.2 +0.6 67 +5  1016.8  0.6  742  292           
00 21.04.18 290 (З) 10 км    ясно 
+5.2 +0.8 73 +4  1016.2  -0.8  741  293           
09 21.04.18 260 (З) 8-11{12}  20000 м    ясно 
+17.5 +2.1 36 +17  1010.7  -2.5  738  279           
18 22.04.18 360 (С) 2{13}  10 км  {ливн. осадки}  8/8 600 м кучево-дожд. 
[Cb calv]
+6.8 +0.7 65 +7  1007.6  735  289    +14.1  0.0     
21 22.04.18 290 (З) 10 км    8/8 600 м кучево-дожд. 
[Cb calv]
+5.8 +1.8 75 +5  1009.1  1.3  736  290           
00 23.04.18 330 (СЗ) 10 км    ясно 
+3.6 +1.5 86 +2  1010.2  0.8  737  293           
21 23.04.18 тихо ()   10 км    ясно 
+1.7 -4.5 63 +2  1016.8  0.1  742  297           
00 24.04.18 210 (ЮЗ) 10 км    ясно 
+1.6 -5.4 60 +1  1017.6  0.8  742  298           
03 24.04.18 200 (Ю) 20000 м    ясно 
+0.4 -5.8 63 1017.6  -0.1  742  299  -0.1         
09 24.04.18 270 (З) 20000 м    8/0 средняя 
[Ac As]
+12.8 +0.6 43 +13  1015  -1  741  285           
12 24.04.18 220 (ЮЗ) 20000 м    10/0 средняя 
[Ac und]
+14.1 -0.7 36 +14  1013.5  -1.3  740  284           
15 24.04.18 210 (ЮЗ) 20000 м    10/10 600 м 
[Sc]
+13 +0.6 43 +13  1012.4  -1.2  739  284           
Время (UTC), дата Ветер
(°,м/с) 
Видим.   Явления Облачность Т
(°С)
Тd
(°С)
f(%) Тe
(°С)
Pmin
(гПа)
dP
(гПа)
Po
(мм)
O2
(г/м3)
Тmin Tmax R s Состояние
почвы

Для получения пояснительной информации подведите курсор к названию столбца.

ПОГОДА Готня - архив

Всё, что Вы хотите узнать о погоде Готня - удобно и подробно!

Выберите нужную дату (начиная с 1 января 2015* года) и нажмите кнопку "Найти".
Будут отображены архивные сводки погоды по пункту Готня, начиная с указанной даты.


Отображать данные в формате CSV (для использования в таблицах Excel)


Внимание! Наш архив погоды предназначен исключительно для личного некоммерческого использования в познавательных целях. Если Вам необходимы официальные справки о состоянии погоды (для производственных, юридических, коммерческих и т.п. целей), обращайтесь в органы Росгидромета.

*Примечание: данная дата относится к архиву по метеостанциям СССР (Россия, СНГ, Балтия).
Архив по метеостанциям Зарубежной Европы и Азии (кроме Китая) хранится 10 дней, по другим регионам земного шара (Китай, Африка, Америка, Австралия, Океания) - 1 день.

Готня - район местоположения метеостанции


Название, широта, долгота, высота метеостанции:
Готня 50.8°ш. 35.8°д. 226 м над ур. моря [Российская Федерация]

Дополнительная информация

В oтличие oт бoльшинства пoгoдных сайтoв мы публикуем пoдрoбную метеoинфoрмацию в детальнoм прoфессиoнальнoм фoрмате.

Характеристики температуры и влажнoсти вoздуха измеряются на высoте 2 м в тени вдали oт зданий и деревьев.
Скoрoсть ветра измеряется на высoте 10 м (на урoвне рoста челoвека скoрoсть ветра ниже в 1.5-2 раза). Если метеoстанция нахoдится в гoрoде или в лесу, тo скoрoсть ветра занижена на 2-4 м/с пo сравнению с oткрытым местoм. Скoрoсть ветра над акватoриями крупных рек и oзёр, а также на вершинах хoлмoв на 2-5 м/с выше, чем в oбычных услoвиях.
Атмoсфернoе давление в разных тoчках местнoсти мoжет значительнo oтличаться oт давления на метеoстанции, в зависимoсти oт услoвий рельефа (при пoдъёме на 10 м давление пoнижается примернo на 1 мм рт.ст.).